Location: Blue Mountain Vista Observatory
(40.6992°N, 75.9422°W)
Time: 06:32:51
(UTC-04:00)

Amateur Radio Satellites - All Passes

Search period start: 27 April 2015 06:02
Search period end: 28 April 2015 06:02
Location: Blue Mountain Vista Observatory, 40.6992°N, 75.9422°W

Satellite Date Start Highest point End Downlink Frequencies (MHz)
Time Altitude Azimuth
PRISM 27 Apr 06:27:32 06:31:22 37° 71° (ENE) 06:35:13 437.425
DANDE 27 Apr 06:28:17 06:33:46 20° 274° (W) 06:39:13 436.750
JAS-2 27 Apr 06:28:28 06:33:39 27° 297° (WNW) 06:38:15 435.910
CUBESAT XI-V 27 Apr 06:34:24 06:39:00 73° 76° (ENE) 06:43:37 437.345
M-CUBED/EXP-1 PRIME 27 Apr 06:52:06 06:56:40 43° 257° (WSW) 07:01:17 437.505
PCSat 27 Apr 07:03:40 07:06:19 14° 105° (ESE) 07:09:15 145.827
CUTE-I 27 Apr 07:13:04 07:18:18 57° 100° (E) 07:23:33 437.470
STRAND 1 27 Apr 07:18:32 07:23:39 83° 259° (WSW) 07:28:47 437.568
Cubesat XI-IV 27 Apr 07:23:08 07:28:28 72° 102° (ESE) 07:33:48 437.490
O/OREOS (USA 219) 27 Apr 07:30:06 07:33:52 26° 58° (ENE) 07:37:40 437.305
AUBIESAT-1 27 Apr 07:34:25 07:37:53 19° 264° (W) 07:41:13 437.475
Cosmos 2499 27 Apr 07:36:38 07:42:39 25° 277° (W) 07:48:08 435.465 / 435.565
AO-7 27 Apr 07:52:57 07:57:31 16° 311° (NW) 08:01:41 29.400- 29.500
PRISM 27 Apr 08:04:08 08:07:00 17° 267° (W) 08:09:45 437.425
CUBESAT XI-V 27 Apr 08:15:59 08:17:04 10° 273° (W) 08:17:50 437.345
BRITE-PL 27 Apr 08:19:35 08:23:30 22° 92° (E) 08:27:46 437.365/2234.400
DOVE 4 27 Apr 08:29:32 08:30:56 11° 86° (E) 08:32:44 437.250
PCSat 27 Apr 08:43:45 08:49:10 75° 301° (WNW) 08:54:37 145.827
CUTE-I 27 Apr 08:54:15 08:57:59 19° 296° (WNW) 09:01:34 437.470
CINEMA 3 27 Apr 09:01:32 09:03:05 12° 86° (E) 09:04:58 145.822/145.860
Cubesat XI-IV 27 Apr 09:04:52 09:08:03 16° 298° (WNW) 09:10:59 437.490
O/OREOS (USA 219) 27 Apr 09:09:23 09:13:18 29° 256° (WSW) 09:17:08 437.305
COMPASS 1 27 Apr 09:11:19 09:14:07 18° 91° (E) 09:17:02 437.405
ANTELSAT 27 Apr 09:34:20 09:36:36 14° 64° (ENE) 09:39:05 437.575/2403.000
GOMX 1 27 Apr 09:35:50 09:41:03 76° 101° (ESE) 09:46:29 467.674
Oscar 11 27 Apr 09:38:00 09:40:15 14° 90° (E) 09:42:42 145.826/435.025
SEEDS 27 Apr 09:38:35 09:42:40 45° 98° (E) 09:46:42 437.485
Cosmos 2491 27 Apr 09:39:06 09:47:36 50° 75° (ENE) 09:56:09 435.465 / 435.565
HO-68 27 Apr 09:43:44 09:50:52 63° 102° (ESE) 09:57:57 435.675
CANX-2 27 Apr 09:49:47 09:54:06 83° 102° (ESE) 09:58:21 2200.000
AAUSAT CUBESAT 2 27 Apr 09:51:35 09:55:35 43° 98° (E) 09:59:34 437.432
BRITE-PL 27 Apr 09:57:16 10:02:13 47° 287° (WNW) 10:07:27 437.365/2234.400
CUTE 1.7 + AOD 2 27 Apr 09:58:40 10:02:58 86° 284° (WNW) 10:07:13 437.475
DOVE 4 27 Apr 10:04:11 10:09:23 86° 280° (W) 10:14:42 437.250
NANOSAT C BR1 27 Apr 10:04:52 10:06:31 12° 64° (ENE) 10:08:22 145.865
POPSAT HIP 1 27 Apr 10:08:27 10:10:29 14° 65° (ENE) 10:12:43 437.405
DX 1 27 Apr 10:15:24 10:16:39 11° 89° (E) 10:18:11 434.975-435.025
TIGRISAT 27 Apr 10:21:27 10:25:39 39° 71° (ENE) 10:30:00 435.000
CUBEBUG 2 27 Apr 10:23:43 10:28:16 42° 97° (E) 10:32:46 437.445
BUGSAT 1 27 Apr 10:24:01 10:25:49 13° 65° (ENE) 10:27:49 437.445
UNISAT 6 27 Apr 10:26:25 10:30:45 46° 72° (ENE) 10:35:14 437.425
PCSat 27 Apr 10:30:42 10:33:36 14° 321° (NW) 10:36:19 145.827
CINEMA 3 27 Apr 10:35:54 10:40:56 79° 284° (WNW) 10:45:58 145.822/145.860
DUCHIFAT 1 27 Apr 10:36:13 10:39:41 26° 70° (ENE) 10:43:16 145.980
POLYITAN 1 27 Apr 10:37:16 10:40:52 28° 70° (ENE) 10:44:33 437.675
YUBILEINY 27 Apr 10:43:14 10:51:40 55° 91° (E) 11:00:13 435.215
UWE-3 27 Apr 10:46:05 10:50:45 59° 100° (E) 10:55:21 435.000/436.395/437.385
COMPASS 1 27 Apr 10:46:06 10:50:00 37° 288° (WNW) 10:53:49 437.405
DELFI C3 27 Apr 10:50:53 10:54:56 72° 101° (E) 10:58:56 145.870
FUNcube-1 27 Apr 10:51:01 10:55:31 51° 99° (E) 10:59:58 145.935
AIST 2 27 Apr 10:52:02 10:53:13 11° 37° (NE) 10:54:33 435.215
UKube-1 27 Apr 10:53:57 10:57:43 29° 96° (E) 11:01:31 .
QB50P1 27 Apr 10:54:20 10:58:17 42° 72° (ENE) 11:02:19 145.935-145.965
HUMSAT D 27 Apr 10:58:23 11:02:09 29° 95° (E) 11:05:56 437.325/437.525
ANTELSAT 27 Apr 11:08:22 11:12:53 63° 260° (W) 11:17:31 437.575/2403.000
Oscar 11 27 Apr 11:12:34 11:16:47 49° 287° (WNW) 11:20:57 145.826/435.025
BEESAT 3 27 Apr 11:13:03 11:17:01 46° 53° (NE) 11:20:56 437.485
SEEDS 27 Apr 11:15:29 11:18:09 16° 294° (WNW) 11:20:37 437.485
GOMX 1 27 Apr 11:15:43 11:18:41 15° 296° (WNW) 11:21:28 467.674
BEESAT 2 27 Apr 11:16:46 11:20:42 42° 52° (NE) 11:24:37 435.950
ZACube-1 27 Apr 11:17:05 11:21:44 82° 284° (WNW) 11:26:18 437.345
QB50P2 27 Apr 11:20:47 11:25:01 89° 80° (E) 11:29:17 145.880/145.840
VELOX 1 27 Apr 11:27:24 11:31:26 33° 97° (E) 11:35:29 145.980
AAUSAT CUBESAT 2 27 Apr 11:28:16 11:30:54 16° 294° (WNW) 11:33:22 437.432
CUBEBUG 1 27 Apr 11:28:27 11:31:10 17° 91° (E) 11:34:04 437.445
50 SAT 27 Apr 11:29:42 11:33:29 38° 97° (E) 11:37:14 437.505
HO-68 27 Apr 11:32:20 11:38:08 26° 300° (WNW) 11:43:43 435.675
Cosmos 2491 27 Apr 11:36:25 11:44:15 36° 274° (W) 11:51:54 435.465 / 435.565
ISS 27 Apr 11:36:30 11:39:42 57° 140° (SE) 11:42:55 145.825
NANOSAT C BR1 27 Apr 11:37:45 11:41:54 60° 259° (W) 11:46:06 145.865
POPSAT HIP 1 27 Apr 11:41:50 11:45:58 53° 261° (W) 11:50:07 437.405
DOVE 4 27 Apr 11:44:40 11:46:29 12° 298° (WNW) 11:48:01 437.250
AISAT 27 Apr 11:45:46 11:50:10 56° 100° (E) 11:54:34 437.250
SO-50 27 Apr 11:46:00 11:50:39 90° 147° (SSE) 11:55:30 436.795
DX 1 27 Apr 11:49:05 11:53:24 63° 286° (WNW) 11:57:44 434.975-435.025
AIST 1 27 Apr 11:52:30 11:56:44 60° 80° (E) 12:00:58
BUGSAT 1 27 Apr 11:57:01 12:00:56 50° 261° (W) 12:04:51 437.445
TIGRISAT 27 Apr 11:59:14 12:02:36 20° 269° (W) 12:05:55 435.000
CUBEBUG 2 27 Apr 12:01:03 12:04:41 21° 293° (WNW) 12:08:11 437.445
UNISAT 6 27 Apr 12:04:47 12:07:51 17° 270° (W) 12:10:48 437.425
DUCHIFAT 1 27 Apr 12:11:57 12:15:29 25° 265° (W) 12:18:58 145.980
Cosmos 2504 27 Apr 12:12:05 12:17:34 19° 81° (E) 12:23:30 435.465 / 435.565
POLYITAN 1 27 Apr 12:13:20 12:16:47 24° 266° (W) 12:20:13 437.675
UWE-3 27 Apr 12:24:01 12:26:50 15° 295° (WNW) 12:29:27 435.000/436.395/437.385
AIST 2 27 Apr 12:28:22 12:32:37 76° 57° (ENE) 12:36:47 435.215
FUNcube-1 27 Apr 12:28:29 12:31:28 17° 294° (WNW) 12:34:15 145.935
UKube-1 27 Apr 12:30:11 12:33:46 25° 292° (WNW) 12:37:15 .
ESTCUBE 1 27 Apr 12:31:01 12:35:32 88° 287° (WNW) 12:40:01 437.505/2401.250
QB50P1 27 Apr 12:31:48 12:34:26 16° 269° (W) 12:36:54 145.935-145.965
HUMSAT D 27 Apr 12:34:14 12:37:49 25° 291° (WNW) 12:41:16 437.325/437.525
YUBILEINY 27 Apr 12:41:07 12:48:58 33° 291° (WNW) 12:56:38 435.215
SPROUT 27 Apr 12:41:09 12:44:52 28° 95° (E) 12:48:38 437.525
BEESAT 3 27 Apr 12:52:09 12:54:42 16° 249° (WSW) 12:57:03 437.485
BEESAT 2 27 Apr 12:55:44 12:58:32 17° 248° (WSW) 13:01:11 435.950
CUBEBUG 1 27 Apr 13:03:39 13:07:48 43° 288° (WNW) 13:11:56 437.445
VELOX 1 27 Apr 13:04:19 13:07:50 23° 292° (WNW) 13:11:15 145.980
50 SAT 27 Apr 13:05:21 13:08:01 17° 293° (WNW) 13:10:32 437.505
Oscar 19 27 Apr 13:11:50 13:16:41 44° 71° (ENE) 13:21:37 437.125/150
ISS 27 Apr 13:13:35 13:16:16 23° 338° (NNW) 13:18:56 145.825
RS-15 27 Apr 13:21:36 13:30:36 33° 107° (ESE) 13:40:02 29.354- 29.394
AISAT 27 Apr 13:23:47 13:26:21 15° 295° (WNW) 13:28:44 437.250
SO-50 27 Apr 13:29:05 13:31:58 15° 323° (NW) 13:34:46 436.795
BEESAT 27 Apr 13:32:24 13:34:15 12° 88° (E) 13:36:23 436.000
AIST 1 27 Apr 13:33:04 13:33:55 10° 275° (W) 13:34:30
SWISSCUBE 27 Apr 13:34:42 13:37:12 15° 90° (E) 13:39:56 437.505
TISAT 1 27 Apr 13:38:48 13:43:05 84° 284° (WNW) 13:47:20 437.305
ITAMSAT 1 27 Apr 13:51:07 13:55:39 33° 68° (ENE) 14:00:16 435.822/435.867
Cosmos 2504 27 Apr 14:01:09 14:10:04 87° 277° (W) 14:18:53 435.465 / 435.565
SPROUT 27 Apr 14:17:16 14:20:53 25° 291° (WNW) 14:24:24 437.525
Gurwin Techsat 1B 27 Apr 14:31:23 14:36:38 66° 74° (ENE) 14:41:56 435.225
ITUPSAT 1 27 Apr 14:38:20 14:43:04 60° 101° (E) 14:47:46 437.325
ISS 27 Apr 14:52:05 14:53:32 12° 358° (N) 14:54:58 145.825
Oscar 19 27 Apr 14:52:16 14:56:18 22° 268° (W) 15:00:12 437.125/150
JAS-2 27 Apr 14:53:34 14:59:38 26° 63° (ENE) 15:05:41 435.910
AO-7 27 Apr 15:04:42 15:11:59 38° 61° (ENE) 15:19:26 29.400- 29.500
BEESAT 27 Apr 15:07:55 15:12:39 67° 287° (WNW) 15:17:22 436.000
GONETS M04 27 Apr 15:10:24 15:15:12 17° 79° (E) 15:20:34
SWISSCUBE 27 Apr 15:10:50 15:15:31 57° 287° (WNW) 15:20:09 437.505
STARS 27 Apr 15:21:57 15:25:11 20° 93° (E) 15:28:32 437.465
ITAMSAT 1 27 Apr 15:30:36 15:35:10 30° 265° (W) 15:39:40 435.822/435.867
RS-15 27 Apr 15:31:24 15:42:15 69° 308° (NW) 15:53:23 29.354- 29.394
PCSat 27 Apr 15:50:06 15:53:02 15° 39° (NE) 15:56:08 145.827
HORYU 2 27 Apr 15:50:40 15:55:09 82° 76° (ENE) 15:59:42 437.375
Cosmos 2504 27 Apr 15:58:46 16:04:54 19° 299° (WNW) 16:10:32 435.465 / 435.565
VERMONT LUNAR 27 Apr 16:06:58 16:09:57 30° 156° (SSE) 16:12:58 437.305
KKS-1 27 Apr 16:07:41 16:12:12 81° 284° (WNW) 16:16:41 437.445
Gurwin Techsat 1B 27 Apr 16:14:04 16:17:11 15° 271° (W) 16:20:03 435.225
ITUPSAT 1 27 Apr 16:17:41 16:20:31 15° 296° (WNW) 16:23:10 437.325
ISS 27 Apr 16:28:31 16:30:52 18° 18° (NNE) 16:33:13 145.825
JAS-2 27 Apr 16:36:17 16:44:08 71° 259° (WSW) 16:51:43 435.910
MOZHAYETS 4 27 Apr 16:49:58 16:53:13 19° 91° (E) 16:56:36
PHONESAT 2.4 27 Apr 16:55:42 16:58:45 27° 154° (SSE) 17:01:51 2401.200-2431.200
AO-7 27 Apr 16:56:37 17:04:37 51° 259° (W) 17:12:37 29.400- 29.500
STARS 27 Apr 16:57:40 17:01:48 37° 289° (WNW) 17:05:52 437.465
CUTE-I 27 Apr 16:58:37 17:00:36 12° 60° (ENE) 17:02:51 437.470
GONETS M04 27 Apr 17:02:08 17:10:56 88° 94° (E) 17:19:49
CUSAT 1 27 Apr 17:04:02 17:07:31 39° 91° (E) 17:12:07 437.405
Cubesat XI-IV 27 Apr 17:07:50 17:10:45 16° 62° (ENE) 17:13:53 437.490
PCSat 27 Apr 17:31:57 17:37:25 81° 60° (ENE) 17:42:50 145.827
VERMONT LUNAR 27 Apr 17:43:49 17:47:12 79° 173° (S) 17:50:36 437.305
RS-15 27 Apr 17:48:28 17:57:19 26° 337° (NNW) 18:06:12 29.354- 29.394
DANDE 27 Apr 17:57:11 18:00:37 69° 281° (W) 18:05:16 436.750
ISS 27 Apr 18:04:21 18:07:38 83° 40° (NE) 18:10:53 145.825
Cosmos 2499 27 Apr 18:16:43 18:25:08 51° 91° (E) 18:33:24 435.465 / 435.565
MOZHAYETS 4 27 Apr 18:26:22 18:30:40 39° 288° (WNW) 18:34:53
JAS-2 27 Apr 18:27:09 18:30:28 12° 277° (W) 18:33:09 435.910
CUBESAT XI-V 27 Apr 18:32:23 18:35:32 19° 91° (E) 18:38:50 437.345
PHONESAT 2.4 27 Apr 18:33:09 18:36:44 75° 170° (S) 18:40:20 2401.200-2431.200
CUTE-I 27 Apr 18:34:40 18:40:00 90° 146° (SE) 18:45:22 437.470
M-CUBED/EXP-1 PRIME 27 Apr 18:36:09 18:38:11 14° 93° (E) 18:40:18 437.505
SO-50 27 Apr 18:38:48 18:41:17 14° 36° (NE) 18:43:55 436.795
Cubesat XI-IV 27 Apr 18:44:59 18:50:18 73° 257° (WSW) 18:55:39 437.490
CUSAT 1 27 Apr 18:48:07 18:50:50 16° 300° (WNW) 18:53:51 437.405
GONETS M04 27 Apr 19:03:00 19:09:14 20° 300° (WNW) 19:15:02
AUBIESAT-1 27 Apr 19:15:14 19:18:57 34° 101° (E) 19:22:23 437.475
PCSat 27 Apr 19:17:38 19:20:13 13° 256° (WSW) 19:22:29 145.827
VERMONT LUNAR 27 Apr 19:21:16 19:24:40 79° 189° (S) 19:28:03 437.305
STRAND 1 27 Apr 19:29:40 19:34:14 34° 96° (E) 19:38:53 437.568
BRITE-PL 27 Apr 19:31:39 19:34:30 19° 66° (ENE) 19:37:34 437.365/2234.400
ISS 27 Apr 19:42:57 19:43:34 10° 230° (SW) 19:44:03 145.825
PRISM 27 Apr 19:45:13 19:49:18 64° 101° (E) 19:53:22 437.425
COMPASS 1 27 Apr 20:03:32 20:05:26 13° 65° (ENE) 20:07:31 437.405
RS-15 27 Apr 20:07:00 20:15:02 21° 12° (NNE) 20:23:27 29.354- 29.394
CUBESAT XI-V 27 Apr 20:08:51 20:13:13 42° 288° (WNW) 20:17:32 437.345
M-CUBED/EXP-1 PRIME 27 Apr 20:09:29 20:13:27 44° 293° (WNW) 20:17:05 437.505
Cosmos 2499 27 Apr 20:10:30 20:18:35 36° 289° (WNW) 20:26:17 435.465 / 435.565
PHONESAT 2.4 27 Apr 20:11:22 20:14:58 83° 188° (S) 20:18:34 2401.200-2431.200
HO-68 27 Apr 20:11:48 20:18:31 46° 67° (ENE) 20:25:21 435.675
SO-50 27 Apr 20:17:46 20:22:46 74° 57° (ENE) 20:27:40 436.795
CUTE-I 27 Apr 20:19:57 20:20:57 10° 274° (W) 20:21:31 437.470
SEEDS 27 Apr 20:30:29 20:34:14 31° 71° (ENE) 20:38:02 437.485
Oscar 11 27 Apr 20:33:44 20:35:16 12° 64° (ENE) 20:37:01 145.826/435.025
CANX-2 27 Apr 20:42:11 20:46:24 56° 74° (ENE) 20:50:38 2200.000
AAUSAT CUBESAT 2 27 Apr 20:42:18 20:45:56 29° 71° (ENE) 20:49:38 437.432
GOMX 1 27 Apr 20:44:22 20:48:33 74° 76° (ENE) 20:53:00 467.674
AUBIESAT-1 27 Apr 20:50:34 20:53:30 19° 300° (WNW) 20:56:10 437.475
CUTE 1.7 + AOD 2 27 Apr 20:50:56 20:55:11 64° 75° (ENE) 20:59:28 437.475
YUBILEINY 27 Apr 20:54:19 21:01:12 26° 65° (ENE) 21:08:19 435.215
VERMONT LUNAR 27 Apr 20:58:55 21:01:54 29° 205° (SSW) 21:04:52 437.305
BRITE-PL 27 Apr 21:09:00 21:12:50 35° 264° (W) 21:16:48 437.365/2234.400
STRAND 1 27 Apr 21:09:00 21:13:22 29° 293° (WNW) 21:17:39 437.568
DOVE 4 27 Apr 21:09:55 21:14:11 88° 257° (WSW) 21:18:43 437.250
DX 1 27 Apr 21:11:59 21:12:46 11° 62° (ENE) 21:13:48 434.975-435.025
CUBEBUG 2 27 Apr 21:21:54 21:25:48 32° 70° (ENE) 21:29:54 437.445
PRISM 27 Apr 21:23:01 21:24:18 11° 296° (WNW) 21:25:21 437.425
COMPASS 1 27 Apr 21:36:31 21:40:41 57° 260° (W) 21:44:53 437.405
CINEMA 3 27 Apr 21:37:23 21:41:45 89° 257° (WSW) 21:46:22 145.822/145.860
DELFI C3 27 Apr 21:38:02 21:41:52 41° 73° (ENE) 21:45:45 145.870
O/OREOS (USA 219) 27 Apr 21:41:56 21:45:56 31° 105° (ESE) 21:50:00 437.305
UWE-3 27 Apr 21:42:56 21:47:06 44° 72° (ENE) 21:51:26 435.000/436.395/437.385
FUNcube-1 27 Apr 21:46:32 21:50:33 38° 72° (ENE) 21:54:43 145.935
UKube-1 27 Apr 21:48:52 21:52:20 25° 68° (ENE) 21:55:54 .
PHONESAT 2.4 27 Apr 21:49:44 21:53:02 35° 203° (SSW) 21:56:21 2401.200-2431.200
HUMSAT D 27 Apr 21:50:29 21:53:36 21° 68° (ENE) 21:56:51 437.325/437.525
HO-68 27 Apr 21:59:57 22:06:25 34° 264° (W) 22:12:48 435.675
SO-50 27 Apr 22:00:14 22:02:46 14° 251° (WSW) 22:05:01 436.795
Oscar 11 27 Apr 22:06:37 22:10:56 67° 258° (WSW) 22:15:19 145.826/435.025
SEEDS 27 Apr 22:06:42 22:10:05 22° 267° (W) 22:13:24 437.485
ZACube-1 27 Apr 22:12:30 22:16:51 76° 76° (ENE) 22:21:21 437.345
50 SAT 27 Apr 22:15:10 22:18:16 22° 69° (ENE) 22:21:29 437.505
AAUSAT CUBESAT 2 27 Apr 22:18:11 22:21:35 23° 267° (W) 22:24:55 437.432
RS-15 27 Apr 22:20:30 22:31:24 47° 43° (NE) 22:42:51 29.354- 29.394
CANX-2 27 Apr 22:20:50 22:22:46 12° 271° (W) 22:24:28 2200.000
UNISAT 6 27 Apr 22:21:55 22:22:25 10° 86° (E) 22:23:16 437.425
VELOX 1 27 Apr 22:25:00 22:28:46 29° 69° (ENE) 22:32:37 145.980
CUBEBUG 1 27 Apr 22:25:19 22:27:31 14° 65° (ENE) 22:29:55 437.445
CUTE 1.7 + AOD 2 27 Apr 22:30:25 22:31:37 11° 272° (W) 22:32:33 437.475
Cosmos 2491 27 Apr 22:39:34 22:48:00 58° 91° (E) 22:56:33 435.465 / 435.565
AISAT 27 Apr 22:43:19 22:47:32 48° 73° (ENE) 22:51:48 437.250
DX 1 27 Apr 22:44:09 22:48:28 76° 257° (WSW) 22:52:49 434.975-435.025
YUBILEINY 27 Apr 22:50:13 22:58:55 68° 266° (W) 23:07:28 435.215
CUBEBUG 2 27 Apr 22:59:04 23:02:35 23° 268° (W) 23:06:08 437.445
ANTELSAT 27 Apr 23:01:08 23:05:11 28° 94° (E) 23:09:13 437.575/2403.000
QB50P2 27 Apr 23:07:49 23:10:15 15° 90° (E) 23:12:52 145.880/145.840
DELFI C3 27 Apr 23:14:47 23:17:15 15° 269° (W) 23:19:34 145.870
UWE-3 27 Apr 23:21:03 23:23:57 17° 270° (W) 23:26:44 435.000/436.395/437.385
O/OREOS (USA 219) 27 Apr 23:21:31 23:25:24 26° 302° (WNW) 23:29:12 437.305
NANOSAT C BR1 27 Apr 23:23:35 23:26:53 22° 93° (E) 23:30:17 145.865
FUNcube-1 27 Apr 23:23:53 23:27:05 19° 269° (W) 23:30:13 145.935
UKube-1 27 Apr 23:24:37 23:28:23 29° 264° (W) 23:32:08 .
HUMSAT D 27 Apr 23:25:16 23:29:09 34° 264° (W) 23:33:04 437.325/437.525
POPSAT HIP 1 27 Apr 23:27:44 23:31:14 24° 94° (E) 23:34:49 437.405
ESTCUBE 1 27 Apr 23:30:09 23:34:40 82° 78° (ENE) 23:39:12 437.505/2401.250
SPROUT 27 Apr 23:35:36 23:38:47 22° 68° (ENE) 23:42:07 437.525
BUGSAT 1 27 Apr 23:39:51 23:43:07 23° 94° (E) 23:46:30 437.445
50 SAT 27 Apr 23:49:30 23:52:58 27° 265° (W) 23:56:26 437.505
TIGRISAT 27 Apr 23:49:44 23:54:29 90° 285° (WNW) 23:59:07 435.000
UNISAT 6 27 Apr 23:55:09 23:59:54 77° 283° (WNW) 00:04:31 437.425
Cosmos 2504 27 Apr 23:55:42 00:02:39 33° 69° (ENE) 00:09:20 435.465 / 435.565
DUCHIFAT 1 27 Apr 23:56:09 00:00:19 50° 99° (E) 00:04:30 145.980
POLYITAN 1 27 Apr 23:58:04 00:02:20 55° 100° (E) 00:06:34 437.675
CUBEBUG 1 27 Apr 23:59:17 00:03:30 53° 260° (W) 00:07:45 437.445
VELOX 1 28 Apr 00:01:42 00:05:21 25° 266° (W) 00:08:57 145.980
QB50P1 28 Apr 00:15:09 00:19:28 86° 99° (E) 00:23:46 145.935-145.965
AIST 1 28 Apr 00:21:48 00:25:42 36° 92° (E) 00:29:39
AISAT 28 Apr 00:21:48 00:24:27 15° 269° (W) 00:26:56 437.250
TISAT 1 28 Apr 00:30:32 00:34:41 69° 74° (ENE) 00:38:52 437.305
RS-15 28 Apr 00:33:01 00:44:20 59° 246° (WSW) 00:55:59 29.354- 29.394
Cosmos 2491 28 Apr 00:37:49 00:45:26 31° 292° (WNW) 00:52:53 435.465 / 435.565
ANTELSAT 28 Apr 00:37:50 00:41:55 29° 291° (WNW) 00:45:52 437.575/2403.000
BEESAT 28 Apr 00:38:39 00:41:20 16° 64° (ENE) 00:44:12 436.000
SWISSCUBE 28 Apr 00:41:08 00:44:13 18° 65° (ENE) 00:47:27 437.505
QB50P2 28 Apr 00:42:19 00:46:27 46° 287° (WNW) 00:50:33 145.880/145.840
YUBILEINY 28 Apr 00:51:31 00:54:15 11° 285° (WNW) 00:56:14 435.215
NANOSAT C BR1 28 Apr 00:58:58 01:02:48 31° 289° (WNW) 01:06:34 145.865
POPSAT HIP 1 28 Apr 01:03:23 01:07:07 28° 290° (WNW) 01:10:46 437.405
SPROUT 28 Apr 01:10:51 01:14:44 32° 264° (W) 01:18:35 437.525
BUGSAT 1 28 Apr 01:14:59 01:18:37 29° 290° (WNW) 01:22:14 437.445
Oscar 19 28 Apr 01:24:55 01:27:55 16° 89° (E) 01:31:09 437.125/150
TIGRISAT 28 Apr 01:29:47 01:30:33 10° 299° (WNW) 01:31:02 435.000
DUCHIFAT 1 28 Apr 01:33:16 01:35:47 15° 294° (WNW) 01:38:08 145.980
POLYITAN 1 28 Apr 01:35:31 01:37:50 14° 295° (WNW) 01:39:59 437.675
ITUPSAT 1 28 Apr 01:44:44 01:49:29 67° 74° (ENE) 01:54:16 437.325
Cosmos 2504 28 Apr 01:48:50 01:56:23 47° 270° (W) 02:03:20 435.465 / 435.565
AIST 1 28 Apr 02:00:31 02:03:33 18° 289° (WNW) 02:06:26
ITAMSAT 1 28 Apr 02:06:35 02:07:46 11° 87° (E) 02:09:18 435.822/435.867
BEESAT 28 Apr 02:14:01 02:18:45 60° 259° (W) 02:23:29 436.000
SWISSCUBE 28 Apr 02:17:04 02:21:44 51° 260° (W) 02:26:24 437.505
STARS 28 Apr 02:19:12 02:22:06 18° 66° (ENE) 02:25:09 437.465
AIST 2 28 Apr 02:27:19 02:30:04 17° 111° (ESE) 02:32:59 435.215
BEESAT 3 28 Apr 02:43:09 02:47:14 82° 302° (WNW) 02:51:23 437.485
BEESAT 2 28 Apr 02:47:47 02:51:54 88° 300° (WNW) 02:56:05 435.950
Gurwin Techsat 1B 28 Apr 02:48:25 02:52:49 27° 94° (E) 02:57:19 435.225
RS-15 28 Apr 02:52:30 02:54:51 10° 263° (W) 02:55:49 29.354- 29.394
DANDE 28 Apr 02:53:19 02:58:30 20° 64° (ENE) 03:04:28 436.750
Oscar 19 28 Apr 03:02:37 03:07:46 61° 287° (WNW) 03:12:53 437.125/150
KKS-1 28 Apr 03:05:22 03:09:48 88° 71° (ENE) 03:14:17 437.445
GONETS M04 28 Apr 03:13:04 03:21:23 44° 73° (ENE) 03:29:45
ITUPSAT 1 28 Apr 03:25:48 03:27:57 12° 272° (W) 03:29:49 437.325
CUSAT 1 28 Apr 03:38:55 03:46:23 48° 74° (ENE) 03:54:24 437.405
ITAMSAT 1 28 Apr 03:42:50 03:48:02 84° 287° (WNW) 03:53:14 435.822/435.867
HORYU 2 28 Apr 03:43:34 03:46:18 16° 91° (E) 03:49:12 437.375
JAS-2 28 Apr 03:49:42 03:52:58 15° 85° (E) 03:56:21 435.910
MOZHAYETS 4 28 Apr 03:52:00 03:55:12 19° 67° (ENE) 03:58:32
STARS 28 Apr 03:54:06 03:58:16 42° 262° (W) 04:02:29 437.465
AIST 2 28 Apr 04:04:14 04:08:21 46° 307° (NW) 04:12:30 435.215
Cosmos 2499 28 Apr 04:10:57 04:14:54 15° 58° (ENE) 04:19:09 435.465 / 435.565
BEESAT 3 28 Apr 04:24:34 04:25:59 11° 322° (NW) 04:27:15 437.485
Gurwin Techsat 1B 28 Apr 04:28:01 04:32:55 38° 291° (WNW) 04:37:45 435.225
BEESAT 2 28 Apr 04:28:57 04:30:42 12° 322° (NW) 04:32:20 435.950
DANDE 28 Apr 04:34:55 04:42:41 87° 82° (E) 04:51:20 436.750
AO-7 28 Apr 04:57:59 05:06:10 58° 102° (ESE) 05:14:21 29.400- 29.500
GONETS M04 28 Apr 05:10:06 05:18:14 41° 272° (W) 05:26:09
HORYU 2 28 Apr 05:18:56 05:23:15 46° 288° (WNW) 05:27:31 437.375
CUSAT 1 28 Apr 05:21:50 05:29:04 40° 269° (W) 05:36:33 437.405
M-CUBED/EXP-1 PRIME 28 Apr 05:22:38 05:26:28 25° 63° (ENE) 05:30:22 437.505
ITAMSAT 1 28 Apr 05:25:18 05:26:50 11° 300° (WNW) 05:28:05 435.822/435.867
MOZHAYETS 4 28 Apr 05:27:42 05:32:09 44° 262° (W) 05:36:35
JAS-2 28 Apr 05:32:49 05:39:03 70° 287° (WNW) 05:44:33 435.910
CUBESAT XI-V 28 Apr 05:35:58 05:39:04 19° 66° (ENE) 05:42:19 437.345
